Tracking 28052 objects as of 24-Sep-2023
HD Live streaming from Space Station
objects crossing your sky now

COSMOS 886 DEB

Track COSMOS 886 DEB now!
10-day predictions


NORAD ID: 9651
Int'l Code: 1976-126H
Perigee: 546.9 km
Apogee: 1,787.0 km
Inclination: 65.8 °
Period: 108.6 minutes
Semi major axis: 7537 km
RCS: 0.1278 m2 (medium)
Launch date: December 27, 1976
Source: Commonwealth of Independent States (former USSR) (CIS)
Launch site: TYURATAM MISSILE AND SPACE COMPLEX (TTMTR)

Note: This is SATELLITE DEBRIS
Your satellite tracking list
Your tracking list is empty




NASA's NSSDC Master Catalog

Two Line Element Set (TLE):
1  9651U 76126H   23267.49735975  .00008177  00000-0  27278-2 0  9993
2  9651  65.7940  53.7213 0822624 189.9969 168.3803 13.26546276218901
Source of the keplerian elements: AFSPC